Content
SEND FEEDBACK

Daily
Averages
Monthly
Summary
United States of America

AGANA, GUAM


Home > North America > United States > Guam
Elevation: 246 feet     Latitude: 13 29N     Longitude: 144 48E

WEATHER
 
SELECT A DAY
Number of Records: 209,106;   Date Range: 1/1/95 - 8/12/14
 
SHARE

PRINT THIS DATA

[ ← Previous Day ]
WEATHER ALMANAC - MARCH 5, 2013
[ Next Day → ]
[ °C ]   °F
Weather ElementAverageHighLow
Temperature83.6 °F88 °F (1:54 pm)81 °F (4:54 am)
Dewpoint75.1 °F78.8 °F (12:27 pm)72 °F (3:54 pm)
Humidity75.7 %89 % (12:27 pm)61 % (2:54 pm)
Barometer29.91 in29.95 in (11:01 am)29.86 in (3:54 am)
Wind Speed10.1 mph16.1 mph (12:19 pm)
Wind Gust21.9 mph (12:19 pm)
Weather ElementAverage
Visibility9.7 mi
Wind DirectionENE (79.2 °)

Weather ElementTotal
Precipitation---
Cooling Degree Days19.5 (Base 65)
Growing Degree Days34.5 (Base 50)
Averaged from 26 records on March 5, 2013
WEATHER CONDITIONS BREAKOUT
WIND DIRECTION BREAKOUT
WEATHER BY HOUR - MARCH 5, 2013
[ °C ]   °F
Local TimeTemperatureDewpointHumidityBarometerVisibilityWind DirectionWind SpeedGust SpeedPrecipitationEventsConditions
1:54 AM82.0 °F77.0 °F85 %29.88 in10.0 miENE (70°)6.9 mphOvercast
2:54 AM82.0 °F75.9 °F82 %29.87 in10.0 miEast (80°)8.1 mphOvercast
3:54 AM82.0 °F75.9 °F82 %29.86 in10.0 miEast (80°)11.5 mphClear
4:54 AM81.0 °F75.9 °F85 %29.86 in10.0 miEast (80°)8.1 mphClear
5:54 AM81.0 °F75.9 °F85 %29.87 in10.0 miENE (60°)5.8 mphMostly Cloudy
6:54 AM81.0 °F75.0 °F82 %29.88 in10.0 miENE (70°)9.2 mphClear
7:54 AM82.9 °F75.9 °F79 %29.91 in10.0 miENE (70°)10.4 mphScattered Clouds
8:54 AM83.7 °F76.5 °F79 %29.92 in10.0 miENE (60°)10.4 mphPartly Cloudy
9:54 AM84.9 °F76.6 °F76 %29.94 in10.0 miENE (60°)11.5 mph18.4 mphMostly Cloudy
10:54 AM85.5 °F76.8 °F75 %29.93 in10.0 miNE (50°)15.0 mphMostly Cloudy
11:01 AM86.0 °F77.0 °F74 %29.95 in10.0 miEast (80°)12.7 mphMostly Cloudy
11:54 AM86.4 °F76.5 °F72 %29.91 in10.0 miEast (80°)12.7 mphMostly Cloudy
12:19 PM84.2 °F75.2 °F74 %29.94 in6.0 miESE (110°)16.1 mph21.9 mph0.00 inRainLight Rain
12:27 PM82.4 °F78.8 °F89 %29.94 in5.0 miEast (100°)11.5 mph0.00 inRainLight Rain
12:54 PM84.9 °F73.9 °F69 %29.90 in10.0 miEast (90°)10.4 mph0.00 inMostly Cloudy
1:54 PM88.0 °F75.0 °F65 %29.88 in10.0 miEast (100°)13.8 mph20.7 mphScattered Clouds
2:54 PM88.0 °F73.0 °F61 %29.87 in10.0 miEast (100°)12.7 mphPartly Cloudy
3:54 PM87.1 °F72.0 °F61 %29.87 in10.0 miEast (80°)15.0 mphScattered Clouds
4:54 PM84.9 °F73.9 °F69 %29.88 in10.0 miEast (100°)11.5 mphOvercast
5:54 PM84.0 °F73.9 °F72 %29.89 in10.0 miEast (90°)9.2 mph0.00 inMostly Cloudy
6:54 PM82.9 °F73.9 °F74 %29.91 in10.0 miEast (90°)5.8 mphPartly Cloudy
7:54 PM82.9 °F73.0 °F72 %29.93 in10.0 miEast (80°)8.1 mphOvercast
8:54 PM82.0 °F73.0 °F74 %29.95 in10.0 miEast (80°)6.9 mphClear
9:54 PM82.0 °F73.9 °F76 %29.95 in10.0 miENE (70°)6.9 mphScattered Clouds
10:54 PM81.0 °F73.9 °F79 %29.95 in10.0 miNE (50°)5.8 mphScattered Clouds
11:54 PM81.0 °F73.0 °F77 %29.94 in10.0 miEast (80°)6.9 mphClear
Hourly data recorded from PGUM, located miles away from Agana, Guam







STORIES FROM OUR PARTNERS